Regional Weather Roundup
Issued by NWS Jackson, KY

Home | Current Version | Previous Version | Graphics & Text | Print | Product List | Glossary On
Versions: 1 2 3 4 5 6 7 8 9 10 11 12 13 14 15 16 17 18 19 20 21 22 23 24 25 26 27 28
000
ASUS43 KJKL 181410
RWRJKL

EAST KENTUCKY HOURLY WEATHER ROUNDUP
NATIONAL WEATHER SERVICE JACKSON KY
1000 AM EDT FRI AUG 18 2017

NOTE: "FAIR" INDICATES FEW OR NO CLOUDS BELOW 12,000 FEET WITH
NO SIGNIFICANT WEATHER AND/OR OBSTRUCTIONS TO VISIBILITY.

* THESE REPORTS ARE NOT UNDER NWS QUALITY CONTROL AND MAY NOT
  REPORT WEATHER SUCH AS PRECIPITATION AND FOG.

KYZ079-080-083-085-087-088-110-112-115-119-120-181500
...EASTERN KENTUCKY...

CITY           SKY/WX    TMP DP  RH WIND       PRES   REMARKS
JACKSON        CLOUDY    74  72  93 CALM      29.96S FOG
LONDON         CLOUDY    75  71  87 SW7       29.97S
SOMERSET*      CLOUDY    72  72 100 W6        29.98R
MONTICELLO*    CLOUDY    76  73  91 W10G17    30.00R
WILLIAMSBURG*  PTSUNNY   75  75 100 SW3       29.98S
MIDDLESBORO*   CLOUDY    77  72  86 CALM      29.98S
HARLAN APT*    CLOUDY    73  72  94 SW3       30.00R
PIKE CO APT*   LGT RAIN  71  71 100 CALM      29.97R
BIG SANDY APT* CLOUDY    73  73 100 SW5       29.96R
MOREHEAD APT*  PTSUNNY   75  72  88 VRB5      29.94S
$$

KYZ035-036-041-042-044-050-067-078-099-181500
...CENTRAL KENTUCKY...

CITY           SKY/WX    TMP DP  RH WIND       PRES   REMARKS
MT STERLING*   CLOUDY    77  72  83 W6        29.96R
FLEMING/MASON* PTSUNNY   78  72  82 W9        29.93R
DANVILLE*      PTSUNNY   77  70  78 W6        29.96S
LEXINGTON      PTSUNNY   77  70  79 W9        29.94S
FRANKFORT      PTSUNNY   78  69  73 VRB6      29.93R
LEBANON*         N/A     77  70  78 W7        29.95S
GLASGOW*       MOSUNNY   77  71  83 NW7       29.96S
BOWLING GREEN  SUNNY     79  72  79 W8        29.97S
$$

KYZ091>093-OHZ055-061-077-WVZ005-015-034-035-042-181500
...SOUTHERN OHIO/WEST VIRGINIA...

CITY           SKY/WX    TMP DP  RH WIND       PRES   REMARKS
COVINGTON      PTSUNNY   76  72  87 W12       29.91R
COLUMBUS       MOSUNNY   78  71  79 W10       29.86R
WILMINGTON     MOSUNNY   76  71  85 W14       29.89S
HUNTINGTON     CLOUDY    76  72  87 SW6       29.91R
CHARLESTON     LGT RAIN  74  71  91 SW9       29.92R
PINEVILLE*     RAIN      73  72  96 MISG      30.02S
BECKLEY        CLOUDY    73  69  87 SW9       30.01F
BLUEFIELD      PTSUNNY   76  68  76 W7        30.04F
LOGAN CO APT*  CLOUDY    72  72 100 SW3       29.96S FOG
$$

VAZ002-007-008-TNZ017-027-036-066-071-181500
...SOUTHWEST VIRGINIA/EAST TENNESSEE...

CITY           SKY/WX    TMP DP  RH WIND       PRES   REMARKS
WISE*          CLOUDY    72  72 100 SW12      30.05R
JONESVILLE*    PTSUNNY   77  73  88 SW7       30.01R
ABINGDON*      CLOUDY    76  73  88 W12       30.02S
BRISTOL        CLOUDY    78  73  84 SW12      30.00S
MORRISTOWN*    CLOUDY    77  73  88 W12       29.98S
SEVIERVILLE*   PTSUNNY   79  72  78 SW7       29.97F
KNOXVILLE      HVY RAIN  72  70  93 W17G28    29.97S VSB 3/4
LAFOLLETTE*    CLOUDY    75  73  94 CALM      30.02S
OAK RIDGE      CLOUDY    79  73  82 VRB6      29.99S
CROSSVILLE     PTSUNNY   75  70  84 W10       30.04S
NASHVILLE      MOSUNNY   80  70  71 VRB5      30.00S
$$

...KEY TO REMARKS...
VSB - VISIBILITY IN MILES
WCI - WIND CHILL INDEX
HX  - HEAT INDEX

$$




USA.gov is the U.S. government's official web portal to all federal, state and local government web resources and services.